Вернуться в каталог

STARLINK-11468

АктивенСвязьVLEO
NORAD 62221·PAYLOAD·🇺🇸 United States

Запущен Dec 5, 2024 с Vandenberg Space Force Base

Loading…

Ближайшие Пролёты (ближайшие 24 часа)

TLE

СвежийSource: CelesTrak SupGP

Эпоха: Sep 14, 2026, 21:06 UTC

1 62221C 24231D   26257.87965278  .00049986  00000+0  41175-3 0  2572
2 62221  53.1572 248.9182 0001196  87.6177 211.4877 15.69684322    12

Отслеживайте STARLINK-11468 в реальном времени с AllMySat

Download on the App Store